MOLNIYA 3-13

Last updated on Aug. 7, 2020, 5:36 a.m. UTC

1 11896U 80063A   20219.04035779 -.00000151  00000-0  00000+0 0  9998
2 11896  62.5898 222.5243 7132534 275.7554  13.9978  2.00608518293499
UTC
Height (km)
Latitude
Longitude
Inclination
Orbital Period
UTC large
Height (km)
Speed (km/s)
/
Latitude / Longitude
Inclination (degrees)
Orbital Period (minutes)
Azimuth
Elevation
Range (km)
Doppler Factor
iOS Compass Heading
iOS Angle

Next 30 passes for location: Hong Kong

Rise time Rise Azimuth (degrees) Set time Set Azimuth (degrees) Duration Max altitude (degrees)

No matching passes for this satellites